Alexandria, LA

4:07 AM CDT on August 24, 2016 (GMT -0500)
Alexandria International

Weather History for KAEX - December, 2003

Change the Weather History Date:

Saturday, December 27, 2003

  Actual Average Record
Temperature  
Mean Temperature 62 °F 49 °F  
Max Temperature 72 °F 59 °F 80 °F (2015)
Min Temperature 52 °F 40 °F 16 °F (1892)
Degree Days  
Heating Degree Days 3 16  
Month to date heating degree days 401  
Since 1 July heating degree days 726  
Growing Degree Days 12 (Base 50)    
Moisture  
Dew Point 50 °F    
Average Humidity 74    
Maximum Humidity 93    
Minimum Humidity 46    
Precipitation  
Precipitation 0.00 in 0.16 in 4.63 in (1942)
Month to date precipitation 5.59  
Year to date precipitation 55.39  
Snow  
Snow 0.00 in - 0.00 in ()
Month to date snowfall  
Since 1 July snowfall  
Snow Depth -    
Sea Level Pressure  
Sea Level Pressure 30.13 in    
Wind  
Wind Speed 8 mph (SE)    
Max Wind Speed 14 mph    
Max Gust Speed 21 mph    
Visibility 10 miles    
Events      
T = Trace of Precipitation, MM = Missing Value Source: NWS Daily Summary

Daily Weather History Graph

Daily Weather History Graph

Search for Another Location

Airport or City:

Trip Planner

Search our weather history database for the weather conditions in past years. The results will help you decide how hot, cold, wet, or windy it might be!

Date:

Astronomy

Dec. 27, 2003 Rise Set
Actual Time 7:07 AM CST 5:14 PM CST
Civil Twilight 6:40 AM CST 5:41 PM CST
Nautical Twilight 6:10 AM CST 6:11 PM CST
Astronomical Twilight 5:40 AM CST 6:41 PM CST
Moon 10:53 AM CST (12/27) 10:05 PM CST (12/27)
Length of Visible Light 11h 00m
Length of Day
10h 07m
Waxing Crescent, 24% of the Moon is Illuminated
Dec 27
Waxing Crescent
Dec 30
First Quarter
Jan 7
Full
Jan 14
Last Quarter
Jan 21
New

Hourly Weather History & Observations

Time (CST) Temp. Dew Point Humidity Pressure Visibility Wind Dir Wind Speed Gust Speed Precip Events Conditions
12:53 AM 52.0 °F 48.0 °F 86% 30.17 in 10.0 mi SE 8.1 mph - N/A   Overcast
1:53 AM 53.1 °F 48.0 °F 83% 30.18 in 10.0 mi SE 8.1 mph - N/A   Overcast
2:53 AM 52.0 °F 48.0 °F 86% 30.19 in 10.0 mi ESE 5.8 mph - N/A   Mostly Cloudy
3:53 AM 52.0 °F 48.0 °F 86% 30.19 in 10.0 mi ESE 5.8 mph - N/A   Overcast
4:53 AM 52.0 °F 48.0 °F 86% 30.19 in 10.0 mi SE 4.6 mph - N/A   Overcast
5:53 AM 52.0 °F 46.9 °F 83% 30.18 in 10.0 mi SE 9.2 mph - N/A   Overcast
6:53 AM 53.1 °F 46.9 °F 80% 30.18 in 10.0 mi SE 10.4 mph - N/A   Overcast
7:53 AM 53.1 °F 48.0 °F 83% 30.20 in 10.0 mi SE 10.4 mph - N/A   Overcast
8:53 AM 55.9 °F 48.9 °F 77% 30.20 in 10.0 mi SE 10.4 mph - N/A   Overcast
9:53 AM 57.9 °F 50.0 °F 75% 30.21 in 10.0 mi SE 10.4 mph - N/A   Overcast
10:53 AM 62.1 °F 51.1 °F 67% 30.17 in 10.0 mi SE 13.8 mph - N/A   Scattered Clouds
11:53 AM 66.9 °F 52.0 °F 59% 30.13 in 10.0 mi SE 13.8 mph - N/A   Clear
12:53 PM 70.0 °F 53.1 °F 55% 30.09 in 10.0 mi SE 11.5 mph - N/A   Clear
1:53 PM 71.1 °F 51.1 °F 49% 30.08 in 10.0 mi SSE 11.5 mph 20.7 mph N/A   Clear
2:53 PM 72.0 °F 50.0 °F 46% 30.06 in 10.0 mi SSE 12.7 mph - N/A   Clear
3:53 PM 70.0 °F 50.0 °F 49% 30.08 in 10.0 mi SSE 12.7 mph - N/A   Clear
4:53 PM 66.9 °F 51.1 °F 57% 30.07 in 10.0 mi SSE 9.2 mph - N/A   Clear
5:53 PM 62.1 °F 50.0 °F 65% 30.07 in 10.0 mi SSE 6.9 mph - N/A   Clear
6:53 PM 57.0 °F 50.0 °F 77% 30.08 in 10.0 mi SSE 5.8 mph - N/A   Clear
7:53 PM 57.9 °F 50.0 °F 75% 30.09 in 10.0 mi SSE 4.6 mph - N/A   Clear
8:53 PM 55.0 °F 50.0 °F 83% 30.09 in 10.0 mi SE 4.6 mph - N/A   Clear
9:53 PM 55.0 °F 50.0 °F 83% 30.10 in 10.0 mi SSE 3.5 mph - N/A   Clear
10:53 PM 53.1 °F 50.0 °F 89% 30.09 in 10.0 mi SE 4.6 mph - N/A   Clear
11:53 PM 52.0 °F 50.0 °F 93% 30.08 in 10.0 mi ESE 4.6 mph - N/A   Clear